TimeMST,TemperatureF,Dew PointF,Humidity,Sea Level PressureIn,VisibilityMPH,Wind Direction,Wind SpeedMPH,Gust SpeedMPH,PrecipitationIn,Events,Conditions,WindDirDegrees,DateUTC
12:16 AM,-14.8,-23.8,64,30.18,-9999.0,Calm,Calm,-,N/A,,Clear,0,2013-01-07 07:16:00
12:36 AM,-16.6,-23.8,70,30.19,-9999.0,Calm,Calm,-,N/A,,Clear,0,2013-01-07 07:36:00
12:56 AM,-16.6,-23.8,70,30.18,-9999.0,Calm,Calm,-,N/A,,Clear,0,2013-01-07 07:56:00
1:16 AM,-14.8,-22.0,70,30.18,-9999.0,Calm,Calm,-,N/A,,Clear,0,2013-01-07 08:16:00
1:36 AM,-16.6,-23.8,70,30.19,-9999.0,Calm,Calm,-,N/A,,Clear,0,2013-01-07 08:36:00
1:56 AM,-16.6,-23.8,70,30.19,-9999.0,Calm,Calm,-,N/A,,Clear,0,2013-01-07 08:56:00
2:16 AM,-16.6,-23.8,70,30.19,-9999.0,Calm,Calm,-,N/A,,Clear,0,2013-01-07 09:16:00
2:36 AM,-18.4,-27.4,63,30.20,-9999.0,Calm,Calm,-,N/A,,Clear,0,2013-01-07 09:36:00
2:56 AM,-18.4,-27.4,63,30.19,-9999.0,Calm,Calm,-,N/A,,Clear,0,2013-01-07 09:56:00
3:16 AM,-18.4,-25.6,70,30.19,-9999.0,Calm,Calm,-,N/A,,Clear,0,2013-01-07 10:16:00
3:36 AM,-18.4,-27.4,63,30.20,-9999.0,Calm,Calm,-,N/A,,Clear,0,2013-01-07 10:36:00
3:56 AM,-18.4,-27.4,63,30.19,-9999.0,Calm,Calm,-,N/A,,Clear,0,2013-01-07 10:56:00
4:16 AM,-20.2,-27.4,69,30.19,-9999.0,Calm,Calm,-,N/A,,Clear,0,2013-01-07 11:16:00
4:36 AM,-20.2,-27.4,69,30.19,-9999.0,Calm,Calm,-,N/A,,Clear,0,2013-01-07 11:36:00
5:16 AM,-20.2,-27.4,69,30.21,-9999.0,Calm,Calm,-,N/A,,Clear,0,2013-01-07 12:16:00
5:36 AM,-20.2,-27.4,69,30.21,-9999.0,Calm,Calm,-,N/A,,Clear,0,2013-01-07 12:36:00
5:56 AM,-20.2,-27.4,69,30.22,-9999.0,Calm,Calm,-,N/A,,Clear,0,2013-01-07 12:56:00
6:16 AM,-20.2,-27.4,69,30.22,-9999.0,Calm,Calm,-,N/A,,Clear,0,2013-01-07 13:16:00
6:36 AM,-22.0,-31.0,63,30.22,-9999.0,Calm,Calm,-,N/A,,Clear,0,2013-01-07 13:36:00
6:56 AM,-22.0,-31.0,63,30.22,-9999.0,Calm,Calm,-,N/A,,Clear,0,2013-01-07 13:56:00
7:16 AM,-22.0,-29.2,69,30.22,-9999.0,Calm,Calm,-,N/A,,Clear,0,2013-01-07 14:16:00
7:36 AM,-22.0,-31.0,63,30.23,-9999.0,Calm,Calm,-,N/A,,Clear,0,2013-01-07 14:36:00
7:56 AM,-22.0,-31.0,63,30.23,-9999.0,Calm,Calm,-,N/A,,Clear,0,2013-01-07 14:56:00
8:16 AM,-20.2,-27.4,69,30.24,-9999.0,Calm,Calm,-,N/A,,Clear,0,2013-01-07 15:16:00
8:35 AM,-20.2,-27.4,69,30.24,-9999.0,Calm,Calm,-,N/A,,Clear,0,2013-01-07 15:35:00
8:56 AM,-18.4,-25.6,70,30.23,-9999.0,Calm,Calm,-,N/A,,Clear,0,2013-01-07 15:56:00
9:15 AM,-16.6,-25.6,64,30.22,-9999.0,Calm,Calm,-,N/A,,Clear,0,2013-01-07 16:15:00
9:36 AM,-14.8,-22.0,70,30.23,-9999.0,Calm,Calm,-,N/A,,Clear,0,2013-01-07 16:36:00
9:56 AM,-9.4,-20.2,59,30.23,-9999.0,Calm,Calm,-,N/A,,Clear,0,2013-01-07 16:56:00
10:16 AM,-13.0,-22.0,64,30.23,-9999.0,Calm,Calm,-,N/A,,Clear,0,2013-01-07 17:16:00
10:35 AM,-9.4,-20.2,59,30.23,-9999.0,Calm,Calm,-,N/A,,Clear,0,2013-01-07 17:35:00
10:56 AM,-9.4,-20.2,59,30.22,-9999.0,Calm,Calm,-,N/A,,Clear,0,2013-01-07 17:56:00
11:16 AM,-7.6,-18.4,59,30.21,-9999.0,Calm,Calm,-,N/A,,Clear,0,2013-01-07 18:16:00
11:35 AM,-5.8,-16.6,60,30.19,-9999.0,Calm,Calm,-,N/A,,Clear,0,2013-01-07 18:35:00
12:16 PM,-4.0,-16.6,55,30.14,-9999.0,Calm,Calm,-,N/A,,Clear,0,2013-01-07 19:16:00
12:36 PM,-2.2,-14.8,55,30.14,-9999.0,Calm,Calm,-,N/A,,Clear,0,2013-01-07 19:36:00
12:56 PM,-0.4,-13.0,55,30.12,-9999.0,Calm,Calm,-,N/A,,Clear,0,2013-01-07 19:56:00
1:16 PM,-0.4,-13.0,55,30.12,-9999.0,Calm,Calm,-,N/A,,Clear,0,2013-01-07 20:16:00
1:35 PM,-0.4,-13.0,55,30.12,-9999.0,Calm,Calm,-,N/A,,Clear,0,2013-01-07 20:35:00
1:56 PM,-0.4,-13.0,55,30.11,-9999.0,Calm,Calm,-,N/A,,Clear,0,2013-01-07 20:56:00
2:16 PM,1.4,-9.4,61,30.11,-9999.0,Calm,Calm,-,N/A,,Clear,0,2013-01-07 21:16:00
2:36 PM,3.2,-9.4,56,30.10,-9999.0,ESE,3.5,-,N/A,,Clear,120,2013-01-07 21:36:00
2:56 PM,3.2,-9.4,56,30.09,-9999.0,Calm,Calm,-,N/A,,Clear,0,2013-01-07 21:56:00
3:16 PM,3.2,-9.4,56,30.09,-9999.0,Calm,Calm,-,N/A,,Clear,0,2013-01-07 22:16:00
3:36 PM,1.4,-9.4,61,30.09,-9999.0,West,3.5,-,N/A,,Clear,260,2013-01-07 22:36:00
4:16 PM,1.4,-9.4,61,30.09,-9999.0,Calm,Calm,-,N/A,,Clear,0,2013-01-07 23:16:00
4:36 PM,-0.4,-9.4,66,30.08,-9999.0,Calm,Calm,-,N/A,,Clear,0,2013-01-07 23:36:00
4:56 PM,-2.2,-9.4,71,30.08,-9999.0,Calm,Calm,-,N/A,,Clear,0,2013-01-07 23:56:00
5:16 PM,-4.0,-13.0,65,30.09,-9999.0,Calm,Calm,-,N/A,,Clear,0,2013-01-08 00:16:00
5:36 PM,-7.6,-16.6,65,30.08,-9999.0,Calm,Calm,-,N/A,,Clear,0,2013-01-08 00:36:00
5:56 PM,-7.6,-14.8,71,30.09,-9999.0,Calm,Calm,-,N/A,,Clear,0,2013-01-08 00:56:00
6:16 PM,-7.6,-16.6,65,30.08,-9999.0,NNE,3.5,-,N/A,,Clear,30,2013-01-08 01:16:00
6:36 PM,-7.6,-14.8,71,30.09,-9999.0,Calm,Calm,-,N/A,,Clear,0,2013-01-08 01:36:00
6:56 PM,-7.6,-16.6,65,30.09,-9999.0,Calm,Calm,-,N/A,,Clear,0,2013-01-08 01:56:00
7:16 PM,-9.4,-16.6,71,30.10,-9999.0,Calm,Calm,-,N/A,,Clear,0,2013-01-08 02:16:00
7:36 PM,-9.4,-16.6,71,30.09,-9999.0,Calm,Calm,-,N/A,,Clear,0,2013-01-08 02:36:00
7:56 PM,-13.0,-18.4,77,30.09,-9999.0,Calm,Calm,-,N/A,,Clear,0,2013-01-08 02:56:00
8:16 PM,-13.0,-18.4,77,30.09,-9999.0,Calm,Calm,-,N/A,,Clear,0,2013-01-08 03:16:00
8:36 PM,-13.0,-18.4,77,30.09,-9999.0,Calm,Calm,-,N/A,,Clear,0,2013-01-08 03:36:00
8:56 PM,-13.0,-18.4,77,30.09,-9999.0,Calm,Calm,-,N/A,,Clear,0,2013-01-08 03:56:00
9:15 PM,-13.0,-18.4,77,30.09,-9999.0,Calm,Calm,-,N/A,,Clear,0,2013-01-08 04:15:00
9:36 PM,-14.8,-22.0,70,30.09,-9999.0,NNE,3.5,-,N/A,,Clear,20,2013-01-08 04:36:00
9:56 PM,-13.0,-20.2,70,30.09,-9999.0,Calm,Calm,-,N/A,,Clear,0,2013-01-08 04:56:00
10:16 PM,-13.0,-20.2,70,30.09,-9999.0,Calm,Calm,-,N/A,,Clear,0,2013-01-08 05:16:00
10:36 PM,-11.2,-18.4,70,30.09,-9999.0,North,4.6,-,N/A,,Clear,350,2013-01-08 05:36:00
10:56 PM,-13.0,-20.2,70,30.10,-9999.0,West,3.5,-,N/A,,Scattered Clouds,270,2013-01-08 05:56:00
11:16 PM,-13.0,-22.0,64,30.09,-9999.0,ESE,4.6,-,N/A,Snow,Light Snow,120,2013-01-08 06:16:00
11:35 PM,-13.0,-20.2,70,30.08,-9999.0,Calm,Calm,-,N/A,,Clear,0,2013-01-08 06:35:00
11:56 PM,-13.0,-18.4,77,30.08,-9999.0,Calm,Calm,-,N/A,,Clear,0,2013-01-08 06:56:00